Location: Kawakawa
(35.3830°S, 174.0670°E)
Time: 19:07:55
(UTC+13:00)

A-11 Canister half - Pass Details

Date: 06 December 2019
Orbit: 1525 x 1684 km, 47.3° (Epoch: 25 January)

Event Time Altitude Azimuth Distance (km) Brightness Sun altitude
Rises 03:03:54 0° 236° (SW) 4,737 11.6 -26.7°
Reaches altitude 10° 03:06:56 10° 236° (WSW) 3,768 11.1 -26.4°
Maximum altitude 03:16:32 83° 322° (NW) 1,619 8.9 -25.4°
Drops below altitude 10° 03:26:26 10° 48° (NE) 3,872 11.0 -24.3°
Sets 03:29:35 0° 49° (NE) 4,873 11.6 -23.9°
